Regional Weather Roundup
Issued by NWS

Home | Current Version | Previous Version | Graphics & Text | Print | Product List | Glossary On
Versions: 1 2 3 4 5 6 7 8 9 10 11 12 13 14 15 16 17 18 19 20 21 22 23 24 25 26 27 28 29 30 31 32 33 34 35 36 37 38 39 40 41 42 43 44 45 46 47 48 49
000
ASUS45 KBOU 030707
RWRCO

WEATHER ROUNDUP FOR COLORADO
NATIONAL WEATHER SERVICE DENVER/BOULDER CO
1200 AM MST TUE MAR 03 2015

NOTE: "FAIR" INDICATES FEW OR NO CLOUDS BELOW 12000 FEET WITH NO
SIGNIFICANT WEATHER AND/OR OBSTRUCTIONS TO VISIBILITY.

COZ001>005-013-030-031-030800-
...NORTHWEST COLORADO...

CITY           SKY/WX    TMP DP  RH WIND       PRES   REMARKS
CRAIG          CLOUDY    34  26  72 SW24G35   29.67S WCI  21
HAYDEN         MOCLDY    32  21  64 SW22G30   29.65F WCI  19
MEEKER         CLOUDY    35  23  61 SW22G30   29.72R WCI  23
MOUNT WERNER   NOT AVBL
STEAMBOAT SPGS CLOUDY    33  19  57 SW14G26   29.66S WCI  23
WALDEN         CLOUDY    28  19  69 SW36G44   29.60S WCI  12
$$

COZ006>008-011-030800-
...WEST CENTRAL VALLEYS...

CITY           SKY/WX    TMP DP  RH WIND       PRES   REMARKS
GRAND JUNCTION MOCLDY    38  24  57 N5        29.78F
MONTROSE       PTCLDY    36  24  62 SW16      29.86F
EAGLE          MOCLDY    32  28  86 W15G21    29.75S WCI  22
RIFLE          CLOUDY    37  28  70 W9        29.76F
DELTA          PTCLDY    38  30  71 CALM      29.85S
NUCLA          NOT AVBL
$$

COZ017>023-064>068-030800-
...SOUTHWEST COLORADO...

CITY           SKY/WX    TMP DP  RH WIND       PRES   REMARKS
DURANGO        CLOUDY    31  31 100 W9        29.91F WCI  23
CORTEZ         CLOUDY    34  29  82 S13       29.93F WCI  25
PAGOSA SPRINGS CLOUDY    30  30 100 SW15      29.90S FOG     WCI  19
TELLURIDE      MOCLDY    26  14  60 SW13G25   29.87  WCI  15
WOLF CREEK PAS CLOUDY    12  12 100 SW37G62   29.80R WCI -11
$$

COZ009-010-012-014-032>034-037-058>063-030800-
...CENTRAL COLORADO...

CITY           SKY/WX    TMP DP  RH WIND       PRES   REMARKS
ASPEN          CLOUDY    28  23  81 SE3       29.75R
BUENA VISTA    MOCLDY    32  12  43 W16G26    29.71S WCI  21
COPPER MTN     HVY SNOW  19  12  73 SW33G53   29.66F VSB<1/4 WCI   0
BERTHOUD PASS  NOT AVBL
COTTONWOOD PAS LGT SNOW  28  12  50 W23G40    29.69F WCI  14
GUNNISON       PTCLDY    30  14  51 W20G29    29.83S WCI  18
KREMMLING      MOCLDY    32  23  69 SW23G35   29.68S WCI  19
LEADVILLE      MIX PCPN  22   7  52 W14G28    29.69R WCI   9
SALIDA         MOCLDY    34  18  52 W26G32    29.82R WCI  21
SUNLIGHT       CLOUDY    21  18  86 SW5         N/A  WCI  15
WILKERSON PASS PTCLDY    16  12  86 SW13G21   29.66S WCI   2
$$

COZ069>075-030800-
...SAN LUIS VALLEY/SANGRE DE CRISTO MOUNTAINS...

CITY           SKY/WX    TMP DP  RH WIND       PRES   REMARKS
ALAMOSA        PTCLDY    30  22  72 SW18      29.80F WCI  18
LA VETA PASS   CLOUDY    21  19  93 S15       29.73F FOG     WCI   8
SAGUACHE       MOCLDY    32  23  69 NW13      29.74F WCI  22
$$

COZ035-036-038>040-030800-
...NORTHERN COLORADO FRONT RANGE...

CITY           SKY/WX    TMP DP  RH WIND       PRES   REMARKS
DENVER INTL AP MOCLDY    28  22  78 S8        29.59R HAZE    WCI  20
DMNS CITY PARK   N/A     29  24  80 SW3       29.57F
AURORA         MOCLDY    33  26  76 S17       29.57F WCI  22
FRONT RANGE AP NOT AVBL
ERIE MUNI ARPT PTCLDY    30  26  83 S7        29.58S FOG     WCI  23
BOULDER MUN AP PTCLDY    43  28  56 S9        29.55F
CENTENNIAL     PTCLDY    43  19  38 SW22G29   29.59S
BROOMFIELD     MOCLDY    30  27  86 W13G23    29.59S FOG     WCI  20
FORT COLLINS   MOCLDY    30  25  80 SE10      29.56F WCI  21
LONGMONT       MOCLDY    47  26  44 SW17G29   29.56F
$$

COZ041-046-047-076>085-087-088-030800-
...PIKES PEAK/PALMER DIVIDE AND SOUTHERN FOOTHILLS...

CITY           SKY/WX    TMP DP  RH WIND       PRES   REMARKS
COLO. SPRINGS  MOCLDY    34  28  79 SW16G28   29.65R WCI  24
A. F. ACADEMY  PTCLDY    41  21  45 W13G20    29.65R
ELLICOTT       NOT AVBL
FALCON         MOCLDY    39  23  53 W24G30    29.65R
FORT CARSON    MOCLDY    33  28  85 VRB2      29.63R
LIMON          MOCLDY    29  23  78 N14       29.57S WCI  18
MONUMENT HILL  PTCLDY    36  23  60 SW25G33   29.65R
TRINIDAD       PTCLDY    42  28  57 W18       29.71F
$$

COZ042>045-048>051-090-091-030800-
...NORTHEAST COLORADO...

CITY           SKY/WX    TMP DP  RH WIND       PRES   REMARKS
GREELEY ARPT   MOCLDY    27  19  74 S5        29.55R WCI  21
AKRON          FOG       28  28 100 NW7       29.57R VSB 1/4 WCI  21
BURLINGTON     CLOUDY    40  32  73 SW29G36   29.53S
WRAY           CLOUDY   N/A N/A N/A CALM      29.57F FOG
STERLING       CLOUDY    32  30  93 NE5       29.54F FOG     WCI  27
HOLYOKE        NOT AVBL
FORT MORGAN    MOCLDY    28  27  94 SE5       29.59R FOG     WCI  23
$$

COZ086-089-092>099-030800-
...SOUTHEAST COLORADO...

CITY           SKY/WX    TMP DP  RH WIND       PRES   REMARKS
PUEBLO         PTCLDY    29  26  89 NW3       29.63R FOG
LA JUNTA       PTCLDY    37  30  75 W18G26    29.64R
LAMAR          PTCLDY    34  31  88 VRB3      29.60S
SPRINGFIELD      N/A     45  37  73 W18G28    29.67R
$$


USA.gov is the U.S. government's official web portal to all federal, state and local government web resources and services.